Regional Weather Roundup
Issued by NWS Northern Indiana

Home | Current Version | Previous Version | Text Only | Print | Product List | Glossary On
Versions: 1 2 3 4 5 6 7 8 9 10 11 12 13 14 15 16 17 18 19 20 21 22 23 24 25 26 27 28 29 30 31 32 33 34 35 36 37 38 39 40 41 42 43 44 45 46 47 48 49 50
000
ASUS43 KIWX 262310
RWRIWX

KIWX WEATHER ROUNDUP
NATIONAL WEATHER SERVICE NORTHERN INDIANA
700 PM EDT SUN APR 26 2015

NOTE: "FAIR" INDICATES FEW OR NO CLOUDS BELOW 12,000 FEET WITH NO
SIGNIFICANT WEATHER AND/OR OBSTRUCTIONS TO VISIBILITY.

* THESE STATIONS ARE NOT UNDER NWS QUALITY CONTROL. THEY ALSO MAY NOT
  REPORT WEATHER SUCH AS PRECIPITATION OR FOG.

INZ001>027-270000-
NORTHERN INDIANA

CITY           SKY/WX    TMP DP  RH WIND       PRES   REMARKS
GARY*          SUNNY     48  28  46 N21       30.01S
VALPARAISO     SUNNY     48  29  47 N13       29.99R
MICHIGAN CITY* SUNNY     45  27  49 N14G21    30.00R
LAPORTE*       SUNNY     49  30  48 N21       29.98S
KNOX*          SUNNY     50   9  18 N22       29.95S
SOUTH BEND     SUNNY     52  26  36 N22       29.96S
GOSHEN         SUNNY     55  33  43 N15G22    29.91S
MONTICELLO*    SUNNY     53  34  47 N16G22    29.94R
LOGANSPORT*    SUNNY     54  30  40 N16G23    29.93R
ROCHESTER*     SUNNY     55  34  44 N16       29.93R
WARSAW*        SUNNY     55  34  44 NW12G17   29.91S
ANGOLA*        MOSUNNY   55  39  54 NE8       29.90R
FORT WAYNE     MOSUNNY   56  34  43 N13G20    29.90R
HUNTINGTON*    MOSUNNY   56  31  38 N6        29.89S
PERU/GRISSOM   MOSUNNY   57  34  41 N13       29.90R
MARION*        PTSUNNY   55  31  40 N10       29.90S

$$
INZ028>050-270000-
CENTRAL INDIANA

CITY           SKY/WX    TMP DP  RH WIND       PRES   REMARKS
LAFAYETTE      SUNNY     53  30  41 N14G24    29.94R
KOKOMO*        MOSUNNY   55  36  47 N10       29.90S
MUNCIE*        MOSUNNY   54  34  46 N12       29.89R
INDIANAPOLIS   MOSUNNY   56  32  40 N17       29.89S

$$
MIZ043>046-050>051-056>058-064>065-071>073-077>080-270000-
SOUTHWEST LOWER MICHIGAN

CITY           SKY/WX    TMP DP  RH WIND       PRES   REMARKS
BATTLE CREEK   CLOUDY    57  28  33 N8        29.90F
BENTON HARBOR  SUNNY     45  29  53 N8G20     29.97S
COLDWATER*     SUNNY     55  27  33 N12G20    29.90S
HILLSDALE*     MOSUNNY   56  27  33 N10       29.89S
HOLLAND        SUNNY     54  29  38 NW13G21   29.95F
GRAND RAPIDS   PTSUNNY   57  28  33 NW20      29.91S
KALAMAZOO      SUNNY     57  30  35 NW15      29.92R
STURGIS*       SUNNY     55  28  35 CALM      29.90S
THREE RIVERS*  FAIR      55  30  37 NW10G18   29.91S

$$
OHZ001>008-015>018-024>025-270000-
NORTHWEST OHIO

CITY           SKY/WX    TMP DP  RH WIND       PRES   REMARKS
WAUSEON*       FAIR      57  28  33 N13       29.88S
DEFIANCE       PTSUNNY   58  29  33 N15G22    29.89R
FINDLAY        PTSUNNY   56  29  35 N15       29.87R
TOLEDO EXPRESS MOSUNNY   55  28  35 NE13      29.88S
TOLEDO METCALF MOSUNNY   56  29  35 NE8       29.89S
LIMA           MOSUNNY   55  33  43 N6        29.87S

$$
AND FOR LAKE MICHIGAN COASTAL AND OPEN LAKE BUOY OBSERVATIONS

STATION/POSITION TEMP    WIND        PRES    VSBY  WAVE
                 AIR SEA DIR/SP/G                  HT/PER
                 (F)     (DEG/KT/KT) (MB)    (MI)  (FT/S)
CALUMET HARBOR    45     360/ 11/ 14   N/A
MICHIGAN CITY     41      10/ 11/ 13   N/A
BURNS HARBOR      43      10/ 15/ 20 1016.3S
SAINT JOSEPH      44     350/ 14/ 17 1015.6S
MICHIGAN CITY     42 45   10/ 16/ 19   N/A           5/ 4

$$
&&



USA.gov is the U.S. government's official web portal to all federal, state and local government web resources and services.